Content
SEND FEEDBACK

Daily
Averages
Monthly
Summary
United States of America

WILMINGTON, NORTH CAROLINA


Home > North America > United States > North Carolina
Elevation: 72 feet     Latitude: 34 16N     Longitude: 077 54W

WEATHER
 
SELECT A DAY
Number of Records: 208,565;   Date Range: 1/1/95 - 7/7/14
 
SHARE

PRINT THIS DATA

[ ← Previous Day ]
WEATHER ALMANAC - JULY 8, 2013
[ Next Day → ]
[ °C ]   °F
We're sorry. There is no daily almanac available for Wilmington, North Carolina on July 8, 2013.
WEATHER BY HOUR - JULY 8, 2013
[ °C ]   °F
Local TimeTemperatureDewpointHumidityBarometerVisibilityWind DirectionWind SpeedGust SpeedPrecipitationEventsConditions
1:53 AM75.0 °F72.0 °F90 %30.17 in10.0 miCalmScattered Clouds
2:53 AM73.0 °F71.1 °F93 %30.18 in10.0 miSouth (190°)3.5 mphClear
3:53 AM72.0 °F70.0 °F93 %30.17 in10.0 miCalmClear
4:53 AM72.0 °F70.0 °F93 %30.18 in10.0 miCalmClear
5:53 AM72.0 °F70.0 °F93 %30.19 in10.0 miCalm0.01 inClear
6:23 AM71.6 °F69.8 °F94 %30.19 in10.0 miCalmPartly Cloudy
6:53 AM73.0 °F70.0 °F90 %30.19 in10.0 miCalmClear
7:53 AM75.9 °F72.0 °F87 %30.19 in10.0 miSSE (160°)3.5 mphClear
8:53 AM81.0 °F72.0 °F74 %30.20 in10.0 miSSW (200°)5.8 mphClear
9:51 AM82.4 °F71.6 °F70 %30.20 in10.0 miSSW (200°)9.2 mphMostly Cloudy
9:53 AM82.0 °F71.1 °F69 %30.20 in10.0 miSouth (190°)10.4 mphMostly Cloudy
10:17 AM82.4 °F71.6 °F70 %30.20 in10.0 miSSW (210°)6.9 mphScattered Clouds
10:48 AM84.2 °F71.6 °F66 %30.20 in10.0 miSSW (210°)5.8 mphMostly Cloudy
10:53 AM84.0 °F70.0 °F63 %30.20 in10.0 miSouth (180°)8.1 mphMostly Cloudy
11:04 AM84.2 °F69.8 °F62 %30.20 in10.0 miVariable4.6 mphMostly Cloudy
11:53 AM84.9 °F70.0 °F61 %30.20 in10.0 miSSW (200°)6.9 mphScattered Clouds
12:53 PM84.9 °F72.0 °F65 %30.19 in10.0 miVariable4.6 mphMostly Cloudy
1:53 PM86.0 °F71.1 °F61 %30.17 in10.0 miVariable6.9 mphMostly Cloudy
2:53 PM87.1 °F71.1 °F59 %30.16 in10.0 miSSW (210°)9.2 mphMostly Cloudy
3:53 PM87.1 °F71.1 °F59 %30.15 in10.0 miSouth (190°)10.4 mphMostly Cloudy
4:53 PM86.0 °F71.1 °F61 %30.13 in10.0 miSouth (180°)12.7 mphPartly Cloudy
5:53 PM84.9 °F69.1 °F59 %30.14 in10.0 miSouth (190°)11.5 mphClear
6:53 PM82.0 °F68.0 °F62 %30.14 in10.0 miSSW (200°)6.9 mphClear
7:53 PM79.0 °F70.0 °F74 %30.14 in10.0 miSouth (190°)8.1 mphClear
8:53 PM78.1 °F70.0 °F76 %30.17 in10.0 miSSW (200°)4.6 mph0.01 inClear
9:53 PM77.0 °F71.1 °F82 %30.17 in10.0 miSouth (180°)3.5 mphClear
10:53 PM77.0 °F71.1 °F82 %30.19 in10.0 miCalmClear
11:53 PM75.9 °F71.1 °F85 %30.19 in10.0 miCalmClear
Hourly data recorded from KILM, located miles away from Wilmington, North Carolina







STORIES FROM OUR PARTNERS